When you browse on this site, cookies collect data to enhance your experience and personalize the content and advertising you see.
Visit our Privacy Policy to learn more. By continuing to use the site, you agree to this use of cookies and data.
  • In Czech Republic
  • List of Countries
  • For 7 days
  • Water Temperature
  • Satellite Maps
  • Weather Map
  • Weather Widgets
  • user-avatar
    Login

    Hourly Weather Chakhansur

    Today, 19 May, Sunday

    Time Temperature Precipitation Wind Pressure Humidity
    00:00 +32°C° 0.1 mm 4 mps 716 mmHg 26%
    01:00 +32°C° 0.1 mm 4 mps 716 mmHg 26%
    02:00 +30°C° 0 mm 4 mps 715 mmHg 27%
    03:00 +30°C° 0 mm 3 mps 715 mmHg 29%
    04:00 +29°C° 0 mm 3 mps 715 mmHg 32%
    05:00 +29°C° 0.2 mm 3 mps 716 mmHg 32%
    06:00 +29°C° 0.2 mm 4 mps 716 mmHg 33%
    07:00 +29°C° 0.2 mm 4 mps 716 mmHg 33%
    08:00 +32°C° 0 mm 4 mps 716 mmHg 30%
    09:00 +33°C° 0 mm 3 mps 717 mmHg 26%
    10:00 +35°C° 0 mm 3 mps 717 mmHg 21%
    11:00 +36°C° 0 mm 3 mps 717 mmHg 20%
    12:00 +37°C° 0 mm 3 mps 716 mmHg 18%
    13:00 +38°C° 0 mm 3 mps 716 mmHg 16%
    14:00 +38°C° 0 mm 3 mps 716 mmHg 15%
    15:00 +39°C° 0 mm 3 mps 715 mmHg 14%
    16:00 +39°C° 0 mm 3 mps 715 mmHg 13%
    17:00 +38°C° 0 mm 3 mps 715 mmHg 13%
    18:00 +38°C° 0 mm 2 mps 715 mmHg 12%
    19:00 +38°C° 0 mm 2 mps 714 mmHg 12%
    20:00 +37°C° 0 mm 2 mps 715 mmHg 13%
    21:00 +35°C° 0 mm 1 mps 715 mmHg 13%
    22:00 +34°C° 0 mm 1 mps 715 mmHg 14%
    23:00 +34°C° 0 mm 1 mps 715 mmHg 15%

    Tomorrow, 20 May, Monday

    Time Temperature Precipitation Wind Pressure Humidity
    00:00 +33°C° 0 mm 1 mps 715 mmHg 15%
    01:00 +32°C° 0 mm 1 mps 715 mmHg 16%
    02:00 +32°C° 0 mm 1 mps 715 mmHg 16%
    03:00 +32°C° 0 mm 2 mps 715 mmHg 16%
    04:00 +31°C° 0 mm 2 mps 715 mmHg 17%
    05:00 +32°C° 0 mm 2 mps 715 mmHg 16%
    06:00 +32°C° 0 mm 1 mps 716 mmHg 16%
    07:00 +33°C° 0 mm 1 mps 716 mmHg 15%
    08:00 +34°C° 0 mm 1 mps 716 mmHg 14%
    09:00 +36°C° 0 mm 1 mps 716 mmHg 12%
    10:00 +37°C° 0 mm 1 mps 717 mmHg 11%
    11:00 +39°C° 0 mm 1 mps 716 mmHg 10%
    12:00 +40°C° 0 mm 1 mps 716 mmHg 10%
    13:00 +40°C° 0 mm 2 mps 716 mmHg 10%
    14:00 +41°C° 0 mm 1 mps 715 mmHg 10%
    15:00 +41°C° 0 mm 1 mps 715 mmHg 10%
    16:00 +41°C° 0 mm 1 mps 714 mmHg 10%
    17:00 +40°C° 0 mm 4 mps 714 mmHg 15%
    18:00 +38°C° 0 mm 8 mps 714 mmHg 19%
    19:00 +37°C° 0 mm 12 mps 714 mmHg 24%
    20:00 +37°C° 0.1 mm 10 mps 715 mmHg 24%
    21:00 +37°C° 0.1 mm 8 mps 715 mmHg 23%
    22:00 +36°C° 0.1 mm 6 mps 715 mmHg 22%
    23:00 +36°C° 0 mm 5 mps 715 mmHg 23%

    Day after tomorrow, 21 May, Tuesday

    Time Temperature Precipitation Wind Pressure Humidity
    00:00 +36°C° 0 mm 5 mps 715 mmHg 23%
    01:00 +36°C° 0 mm 5 mps 715 mmHg 24%
    02:00 +35°C° 0 mm 5 mps 715 mmHg 25%
    03:00 +35°C° 0 mm 4 mps 714 mmHg 25%
    04:00 +34°C° 0 mm 3 mps 714 mmHg 26%
    05:00 +34°C° 0.1 mm 2 mps 714 mmHg 28%
    06:00 +32°C° 0.1 mm 2 mps 715 mmHg 29%
    07:00 +32°C° 0.1 mm 1 mps 715 mmHg 31%
    08:00 +33°C° 0.3 mm 1 mps 715 mmHg 29%
    09:00 +35°C° 0.3 mm 2 mps 716 mmHg 28%
    10:00 +36°C° 0.3 mm 2 mps 716 mmHg 26%
    11:00 +37°C° 0 mm 2 mps 716 mmHg 24%
    12:00 +38°C° 0 mm 2 mps 715 mmHg 22%
    13:00 +39°C° 0 mm 2 mps 715 mmHg 20%
    14:00 +39°C° 0 mm 2 mps 715 mmHg 18%
    15:00 +40°C° 0 mm 2 mps 714 mmHg 17%
    16:00 +40°C° 0 mm 3 mps 714 mmHg 15%
    17:00 +40°C° 0 mm 3 mps 714 mmHg 16%
    18:00 +40°C° 0 mm 4 mps 714 mmHg 17%
    19:00 +40°C° 0 mm 4 mps 714 mmHg 18%
    20:00 +38°C° 0.3 mm 4 mps 714 mmHg 20%
    21:00 +37°C° 0.3 mm 4 mps 715 mmHg 22%
    22:00 +36°C° 0.3 mm 4 mps 715 mmHg 24%
    23:00 +35°C° 1.2 mm 4 mps 715 mmHg 27%

    22 May, Wednesday

    Time Temperature Precipitation Wind Pressure Humidity
    00:00 +34°C° 1.2 mm 4 mps 714 mmHg 29%
    01:00 +33°C° 1.2 mm 4 mps 714 mmHg 32%
    02:00 +31°C° 0.4 mm 3 mps 714 mmHg 33%
    03:00 +31°C° 0.4 mm 3 mps 714 mmHg 34%
    04:00 +31°C° 0.4 mm 3 mps 714 mmHg 35%
    05:00 +32°C° 0 mm 4 mps 714 mmHg 34%
    06:00 +33°C° 0 mm 4 mps 715 mmHg 32%
    07:00 +33°C° 0 mm 5 mps 715 mmHg 31%
    08:00 +34°C° 0.2 mm 5 mps 715 mmHg 28%
    09:00 +35°C° 0.2 mm 4 mps 715 mmHg 26%
    10:00 +35°C° 0.2 mm 4 mps 715 mmHg 23%
    11:00 +36°C° 0 mm 4 mps 715 mmHg 22%
    12:00 +37°C° 0 mm 4 mps 715 mmHg 20%
    13:00 +38°C° 0 mm 4 mps 714 mmHg 19%
    14:00 +38°C° 0 mm 4 mps 714 mmHg 18%
    15:00 +38°C° 0 mm 4 mps 713 mmHg 18%
    16:00 +40°C° 0 mm 5 mps 713 mmHg 17%
    17:00 +39°C° 0 mm 5 mps 713 mmHg 17%
    18:00 +39°C° 0 mm 5 mps 713 mmHg 17%
    19:00 +37°C° 0 mm 5 mps 713 mmHg 17%
    20:00 +38°C° 0 mm 6 mps 714 mmHg 17%
    21:00 +36°C° 0 mm 6 mps 714 mmHg 18%
    22:00 +36°C° 0 mm 7 mps 714 mmHg 18%
    23:00 +34°C° 0 mm 9 mps 714 mmHg 19%

    23 May, Thursday

    Time Temperature Precipitation Wind Pressure Humidity
    00:00 +33°C° 0 mm 10 mps 714 mmHg 19%
    01:00 +32°C° 0 mm 12 mps 713 mmHg 20%
    02:00 +31°C° 0 mm 12 mps 713 mmHg 21%
    03:00 +29°C° 0 mm 12 mps 713 mmHg 22%
    04:00 +28°C° 0 mm 12 mps 713 mmHg 23%
    05:00 +28°C° 0 mm 11 mps 714 mmHg 22%
    06:00 +28°C° 0 mm 11 mps 714 mmHg 21%
    07:00 +28°C° 0 mm 10 mps 715 mmHg 20%
    08:00 +31°C° 0 mm 10 mps 715 mmHg 19%
    09:00 +32°C° 0 mm 9 mps 715 mmHg 17%
    10:00 +34°C° 0 mm 9 mps 715 mmHg 15%
    11:00 +35°C° 0 mm 8 mps 715 mmHg 14%
    12:00 +37°C° 0 mm 8 mps 714 mmHg 13%
    13:00 +38°C° 0 mm 7 mps 714 mmHg 12%
    14:00 +38°C° 0 mm 7 mps 714 mmHg 12%
    15:00 +38°C° 0 mm 7 mps 714 mmHg 12%
    16:00 +38°C° 0 mm 6 mps 713 mmHg 12%
    17:00 +37°C° 0 mm 5 mps 714 mmHg 12%
    18:00 +36°C° 0 mm 4 mps 714 mmHg 13%
    19:00 +36°C° 0 mm 3 mps 714 mmHg 13%
    20:00 +35°C° 0 mm 3 mps 714 mmHg 14%
    21:00 +34°C° 0 mm 4 mps 714 mmHg 14%
    22:00 +33°C° 0 mm 5 mps 715 mmHg 15%
    23:00 +32°C° 0 mm 5 mps 715 mmHg 16%

    24 May, Friday

    Time Temperature Precipitation Wind Pressure Humidity
    00:00 +32°C° 0 mm 5 mps 714 mmHg 17%
    01:00 +30°C° 0 mm 5 mps 714 mmHg 17%
    02:00 +29°C° 0 mm 5 mps 714 mmHg 17%
    03:00 +29°C° 0 mm 5 mps 714 mmHg 18%
    04:00 +28°C° 0 mm 5 mps 714 mmHg 18%
    05:00 +29°C° 0 mm 6 mps 715 mmHg 17%
    06:00 +30°C° 0 mm 6 mps 715 mmHg 16%
    07:00 +30°C° 0 mm 6 mps 716 mmHg 14%
    08:00 +33°C° 0 mm 6 mps 716 mmHg 14%
    09:00 +35°C° 0 mm 6 mps 717 mmHg 13%
    10:00 +36°C° 0 mm 6 mps 717 mmHg 12%
    11:00 +38°C° 0 mm 6 mps 717 mmHg 12%
    12:00 +39°C° 0 mm 6 mps 716 mmHg 13%
    13:00 +40°C° 0 mm 6 mps 716 mmHg 13%
    14:00 +40°C° 0 mm 6 mps 716 mmHg 12%
    15:00 +40°C° 0 mm 6 mps 715 mmHg 11%
    16:00 +40°C° 0 mm 6 mps 715 mmHg 10%
    17:00 +40°C° 0 mm 5 mps 715 mmHg 10%
    18:00 +38°C° 0 mm 4 mps 715 mmHg 10%
    19:00 +38°C° 0 mm 3 mps 715 mmHg 11%
    20:00 +37°C° 0 mm 3 mps 716 mmHg 11%
    21:00 +36°C° 0 mm 3 mps 716 mmHg 12%
    22:00 +35°C° 0 mm 4 mps 716 mmHg 12%
    23:00 +34°C° 0 mm 4 mps 716 mmHg 13%
    Show more